Location: Unspecified
(0.0000°N, 0.0000°E)
Time: 00:20:46
(UTC+00:00)

S-56A Canister/Altair - Pass Details

Date: 22 April 2019
Orbit: 632 x 2500 km, 38.9° (Epoch: 15 July)

Event Time Altitude Azimuth Distance (km) Brightness Sun altitude
Rises 19:33:48 0° 304° (NW) 3,617 12.2 -23.2°
Reaches altitude 10° 19:36:46 10° 300° (WNW) 2,449 11.1 -24.0°
Maximum altitude 19:42:05 53° 223° (SW) 845 7.8 -25.2°
Enters shadow 19:42:43 49° 192° (SSW) 875 7.7 -25.4°
